www.pogodaiklimat.ru

Погода и климат >> Архив погоды >> Пакистан >> Dera Ismail Khan


ПОГОДА в Dera Ismail Khan

  • Прогноз погоды в Dera Ismail Khan
  • Монитор погоды в Dera Ismail Khan
  • Климат города

АРХИВ ПОГОДЫ в Dera Ismail Khan

Время (UTC), дата Ветер
(напр.,м/с)
 
Видим.   Явления Облачность Т
(С)
Тd
(С)
f
(%)
Тe
(С)
Тes
(С)
Комфортность P
(гПа)
Po
(гПа)
Тmin
(С)
Tmax
(С)
R
(мм)
R24
(мм)
S
(см)
03 14.06 штиль 0 4000 м ясно +31.5 +22.9 60 +41 +50 опасность
перегрева
989.0 970.2 +29.1
06 14.06 ЮВ 2 4000 м ясно +37.5 +24.2 47 +49 +69 опасность
перегрева
990.0 971.6
09 14.06 ЮВ 2 4000 м ясно +40.5 +22.8 37 +50 +68 опасность
перегрева
988.7 989.0
12 14.06 ЮВ 2 4000 м ясно +41.0 +26.0 43 +55 +60 опасность
перегрева
986.6 968.4 +42.5
15 14.06 ЮВ 2 4000 м дым ясно +37.5 +27.4 57 +56 +56 опасность
перегрева
987.3 962.7
18 14.06 ЮВ 1 4000 м дым ясно +34.5 +27.0 65 +52 +52 опасность
перегрева
988.5 969.9
21 14.06 ЮВ 2 4000 м дым ясно +33.0 +27.6 73 +52 +52 опасность
перегрева
988.3 988.0
00 15.06 штиль 0 4000 м дым ясно +30.0 +25.8 78 +45 +45 опасность
перегрева
988.5 969.7
03 15.06 штиль 0 4000 м дым ясно +32.0 +25.8 70 +47 +56 опасность
перегрева
991.5 972.7 +29.0
06 15.06 ЮВ 1 4000 м мгла ясно +36.0 +24.4 51 +48 +71 опасность
перегрева
991.6 973.1
09 15.06 ЮВ 1 4000 м мгла ясно +39.0 +23.5 41 +49 +72 опасность
перегрева
990.3 967.6
12 15.06 СЗ 2 2000 м пыль ?/? +36.5 +23.0 46 +46 +46 опасность
перегрева
990.0 971.5 +40.5
15 15.06 ЮВ 1 4000 м дым ясно +34.0 +23.3 54 +45 +45 опасность
перегрева
990.9 1000.0
18 15.06 СВ 2 4000 м дым ясно +32.5 +23.2 58 +43 +43 опасность
перегрева
992.0 1004.3
21 15.06 СВ 1 4000 м дым ясно +31.5 +22.9 60 +41 +41 опасность
перегрева
993.0 993.0
00 16.06 СВ 1 4000 м дым ясно +30.0 +22.8 65 +40 +40 очень
душно
993.7 974.8
03 16.06 СВ 1 4000 м дым 6/3 1110 м
[Sc As op]
+29.0 +21.6 64 +37 +40 очень
душно
995.3 976.3 +28.0
06 16.06 СВ 1 4000 м мгла 6/3 1110 м
[Sc As op]
+34.0 +20.8 46 +41 +52 опасность
перегрева
996.6 977.9
09 16.06 СВ 1 4000 м мгла ясно +37.0 +21.9 42 +45 +67 опасность
перегрева
995.2 995.0
12 16.06 штиль 0 4000 м мгла 4/0
[As op]
+39.0 +22.7 39 +48 +52 опасность
перегрева
992.7 974.4 +40.0
15 16.06 штиль 0 4000 м мгла 6/3 1110 м
[Sc As op]
+37.0 +24.4 49 +49 +49 опасность
перегрева
993.3 993.0
18 16.06 штиль 0 4000 м дым 6/3 1110 м
[Sc As op]
+36.0 +24.9 53 +49 +49 опасность
перегрева
993.8 1003.3
21 16.06 штиль 0 4000 м дым 8/5 300 м
[Sc As op]
+31.5 +24.4 66 +44 +44 опасность
перегрева
995.0 1000.0
00 17.06 ЮВ 4 1000 м пыльный позёмок ?/? +27.0 +21.0 70 +34 +34 очень
душно
996.9 977.8
03 17.06 ЮВ 2 4000 м дым 8/3 1000 м
[Sc As op]
+26.5 +21.3 73 +34 +36 очень
душно
1000.3 981.0 +24.5
06 17.06 СВ 2 4000 м дым 8/3 1110 м
[Sc As op]
+29.5 +22.2 65 +38 +44 очень
душно
1000.3 981.2
09 17.06 ЮВ 1 4000 м дым 6/4 300 м
[Sc As op]
+31.5 +22.0 57 +40 +50 очень
душно
998.5 1000.0
12 17.06 СВ 1 4000 м дым 4/0 1000 м
[As op]
+33.5 +22.7 53 +43 +47 опасность
перегрева
997.0 1006.4 +34.1
15 17.06 СВ 1 4000 м дым 6/4 300 м
[Sc As op]
+31.0 +23.1 63 +41 +41 опасность
перегрева
997.6 1000.0
18 17.06 СВ 1 4000 м дым 4/0
[As op]
+28.5 +24.2 78 +40 +40 очень
душно
999.4 980.3
21 17.06 СВ 1 4000 м дым 6/4 300 м
[Sc As op]
+28.0 +24.4 81 +39 +39 очень
душно
1000.1 975.9
00 18.06 штиль 0 4000 м дым 9/5 300 м
[Sc As op]
+28.0 +23.7 77 +38 +38 очень
душно
998.2 979.1
03 18.06 ЮВ 3 4000 м гроза, ливневой дождь {метель} 10/5 900 м
[Sc As op]
+26.5 +23.6 84 +36 +37 очень
душно
1001.6 982.3 +25.0 5
06 18.06 штиль 0 10 км ясно +32.0 +21.8 55 +41 +67 опасность
перегрева
999.7 980.7
09 18.06 штиль 0 10 км ясно +35.0 +22.9 50 +45 +70 опасность
перегрева
998.5 999.0
12 18.06 штиль 0 4000 м 9/4 1110 м
[Sc As op]
+36.0 +23.2 48 +46 +48 опасность
перегрева
997.2 1004.5 +37.0 5
15 18.06 штиль 0 4000 м ясно +31.0 +20.6 54 +38 +38 очень
душно
997.5 998.0
18 18.06 штиль 0 4000 м ясно +28.0 +23.7 77 +38 +38 очень
душно
999.2 980.1
21 18.06 штиль 0 4000 м ясно +27.0 +24.1 84 +37 +37 очень
душно
999.9 976.7
00 19.06 штиль 0 4000 м ясно +27.0 +24.1 84 +37 +37 очень
душно
998.8 979.6
03 19.06 штиль 0 10 км ясно +30.0 +24.3 72 +42 +51 опасность
перегрева
999.4 980.4 +24.0
06 19.06 ЮВ 1 10 км ясно +34.5 +22.2 49 +43 +69 опасность
перегрева
999.6 980.8
09 19.06 ЮВ 1 10 км ясно +38.5 +22.0 39 +47 +70 опасность
перегрева
997.3 1000.0
12 19.06 штиль 0 10 км ясно +38.5 +22.9 41 +48 +54 опасность
перегрева
995.5 1003.6 +39.5
15 19.06 штиль 0 4000 м ясно +36.0 +24.0 50 +47 +47 опасность
перегрева
995.0 995.0
18 19.06 ЮВ 1 4000 м ясно +34.0 +24.1 56 +46 +46 опасность
перегрева
996.6 977.8
21 19.06 штиль 0 4000 м ясно +31.5 +25.2 69 +45 +45 опасность
перегрева
997.0 975.3
00 20.06 штиль 0 4000 м ясно +30.0 +25.1 75 +43 +43 опасность
перегрева
997.9 978.9
03 20.06 СВ 1 4000 м 5/0
[As op]
+32.5 +24.8 64 +46 +51 опасность
перегрева
999.0 980.1 +28.5
06 20.06 ЮВ 2 4000 м ясно +37.0 +24.4 49 +49 +69 опасность
перегрева
1000.0 981.4
09 20.06 С 7 4000 м гроза, ливневой дождь 10/5 600 м
[Cb cap As op]
+27.0 +20.2 66 +33 +34 очень
душно
1002.4 1002.0 0.0
12 20.06 штиль 0 4000 м 4/0
[As op]
+34.0 +18.9 41 +39 +43 очень
душно
997.3 978.5 +40.0 2
15 20.06 ЮВ 1 4000 м 5/5 1110 м
[Sc]
+31.0 +21.4 57 +39 +39 очень
душно
999.0 999.0
18 20.06 штиль 0 4000 м ясно +28.5 +21.1 64 +36 +36 очень
душно
1000.7 981.6

 

Местоположение метеостанции Dera Ismail Khan (Пакистан): широта 31.82 долгота 70.92 высота над уровнем моря 173 м.

В архиве по умолчанию представлена погода в Dera Ismail Khan за последнюю неделю. Архивные данные за месяц целиком и за предыдущие месяцы, начиная с января 2011 года, Вы можете получить, выбрав интересующий диапазон дат из раскрывающегося списка и нажав кнопку "Ввод!".


*Определитесь, кто Вы:
робот инопланетянин человек

Внимание! Время в таблицах - всемирное. Для получения местного времени необходимо прибавить поправку, которая в Dera Ismail Khan равна 5 ч.

Смотрите также архив погоды в соседних городах и на ближайших метеорологических станциях:

Погода в Mianwali (Пакистан) (99 км)
Погода в Zhob (Пакистан) (147 км)
Погода в Sargodha (Пакистан) (167 км)
Погода в Raifiqui Airbase (Пакистан) (168 км)
Погода в Multan (Пакистан) (187 км)
Погода в Kohat (Пакистан) (200 км)
Погода в Faisal Abad (Пакистан) (211 км)
Погода в Parachinar (Пакистан) (241 км)
Погода в Barkhan (Пакистан) (244 км)
Погода в Peshawar (Пакистан) (252 км)

Пояснения к столбцам:

Ветер - указаны скорость ветра в м/с - средняя за 10 мин, порывы в срок и между сроками (в фигурных скобках) и направление, откуда дует ветер: С - северный, СВ - северо-восточный, В - восточный, ЮВ - юго-восточный, Ю - южный, ЮЗ - юго-западный, З - западный, СЗ - северо-западный.
Видимость - горизонтальная дальность видимости в метрах или километрах. При видимости от 1 до 10 км при отсутствии осадков обычно наблюдается дымка, при ухудшении видимости до 1 км и менее - туман. В сухую погоду видимость может ухудшаться дымом, пылью или мглою.
Явления - указаны атмосферные явления, наблюдавшиеся в срок или в последний час перед сроком; фигурными скобками обозначены явления, наблюдавшиеся между сроками (за 1-3 часа до срока); квадратными скобками обозначены град или гололедные отложения с указанием их диаметра в мм.
Облачность - указаны через наклонную черту общая и нижняя облачность в баллах и высота нижней границы облаков в метрах; квадратными скобками обозначены формы облаков: Ci - перистые, Cs - перисто-слоистые, Cc - перисто-кучевые, Ac - высококучевые, As - высокослоистые, Sc - слоисто-кучевые, Ns - слоисто-дождевые, Cu - кучевые, Cb - кучево-дождевые. Подробнее классификацию облаков см. в Атласе облаков (PDF).
T - Температура воздуха - температура, измеренная на высоте 2 м над землей.
Td - Температура точки росы - температура, при понижении до которой содержащийся в воздухе водяной пар достигнет насыщения.
f - Относительная влажность воздуха - влажноcть воздуха, измеренная на высоте 2 м над землей.
Te - Эффективная температура - температура, которую ощущает одетый по сезону человек в тени. Характеристика душности погоды. При расчете учитывается влияние влажности воздуха и скорости ветра на теплоощущения человека.
Tes - Эффективная температура на солнце - температура, которую ощущает человек, с поправкой на солнечный нагрев. Характеристика знойности погоды. Зависит от высоты солнца над горизонтом, облачности и скорости ветра. Ночью, в пасмурную погоду, а также при ветре 12 м/с и более поправка равна нулю.
P - Атмосферное давление - приведенное к уровню моря атмосферное давление.
Po - Атмосферное давление - измеренное на уровне метеостанции атмосферное давление.
Tmin - Минимальная температура - минимум температуры воздуха на высоте 2 м над землей.
Tmax - Максимальная температура - максимум температуры воздуха на высоте 2 м над землей.
R - Количество осадков - Количество выпавших осадков за период времени, мм. При наведении курсора мыши на число - период времени, за который выпало указанное количество осадков.
R24 - Количество осадков - Количество выпавших осадков за 24 часа, мм.
S - Снежный покров - Высота снежного покрова, см. При наведении курсора мыши на число - состояние снежного покрова и степень покрытия местности в баллах.